Regional Weather Roundup
Issued by NWS

Home | Current Version | Previous Version | Graphics & Text | Print | Product List | Glossary On
Versions: 1 2 3 4 5 6 7 8 9 10 11 12 13 14 15 16 17 18 19 20 21 22 23 24 25 26 27 28 29 30 31 32 33 34 35 36 37 38 39 40 41 42 43 44 45 46 47 48 49 50
000
ASUS43 KFSD 261702
RWRSD

WEATHER ROUNDUP FOR SOUTH DAKOTA
NATIONAL WEATHER SERVICE SIOUX FALLS SD
1200 PM CDT WED APR 26 2017

NOTE: "FAIR" INDICATES FEW OR NO CLOUDS BELOW 12,000 FEET WITH NO
SIGNIFICANT WEATHER AND/OR OBSTRUCTIONS TO VISIBILITY.


SDZ001>005-009-010-012>017-261800-
NORTHWEST AND NORTH CENTRAL SOUTH DAKOTA

CITY           SKY/WX    TMP DP  RH WIND       PRES   REMARKS
BUFFALO          N/A     34  24  67 NE8       29.78F WCI  27
FAITH            N/A     35  27  72 NW15      29.82F WCI  25
MOBRIDGE       CLOUDY    36  24  62 N14       29.78F
$$

SDZ012>016-024>037-041>051-057-063-072>074-261800-
SOUTHWEST AND SOUTH CENTRAL SOUTH DAKOTA

CITY           SKY/WX    TMP DP  RH WIND       PRES   REMARKS
RAPID CTY ARPT CLOUDY    32  24  72 N12       29.84F WCI  23
PIERRE         CLOUDY    40  27  59 N22G30    29.79F
CUSTER         CLOUDY    31  28  89 VRB6      29.74F WCI  25
ELLSWORTH AFB  CLOUDY    31  24  74 NW9       29.83F WCI  23
PHILIP         CLOUDY    35  28  75 NW17      29.83F WCI  25
PINE RIDGE     CLOUDY    34  28  79 NW10      29.83F WCI  26
SPEARFISH      CLOUDY    30  23  74 CALM      29.83F
WINNER         CLOUDY    37  28  70 NW22G30   29.79S
$$

SDZ004>011-016>023-039-040-261800-
NORTHEAST SOUTH DAKOTA

CITY           SKY/WX    TMP DP  RH WIND       PRES   REMARKS
ABERDEEN       LGT SNOW  30  26  85 N15       29.77F VSB 1   WCI  19
WATERTOWN      CLOUDY    31  27  85 N22G28    29.67S WCI  18
BROOKINGS      CLOUDY    33  28  81 N21       29.64F WCI  21
SISSETON         N/A     31  28  89 N24G30    29.69F WCI  17
$$

SDZ017-020-022-023-036>040-048>070-261800-
SOUTHEAST SOUTH DAKOTA

CITY           SKY/WX    TMP DP  RH WIND       PRES   REMARKS
SIOUX FALLS    CLOUDY    37  32  82 NW22G29   29.65F
HURON          CLOUDY    34  26  72 N25G31    29.74F WCI  21
CHAMBERLAIN    CLOUDY    37  28  70 NW20G28   29.77F
MITCHELL       CLOUDY    35  28  75 N25G36    29.75S WCI  23
YANKTON        CLOUDY   N/A N/A N/A NW22G32   29.70R
$$

ABBREVIATIONS USED IN REMARKS
   TC - TEMPERATURE IN CELSIUS
  WCI - WIND CHILL INDEX
   HX - HEAT INDEX
  VSB - VISIBILITY





USA.gov is the U.S. government's official web portal to all federal, state and local government web resources and services.